QPF
0.01 0.01 0.02 0.01 0.02 0.03 0.04 0.06 0.07 0.07 0.06 0.05 0.05 0.07 0.08 0.08 0.09 0.08 0.06 0.05 0.05 0.05 0.06 0.05 0.08 0.09 0.10 0.09 0.07 0.08 0.09 0.10 0.10 0.10 0.09 0.06 0.05 0.05 0.05 0.04 0.04 0.03 0.04
0.02 0.02 0.02 0.02 0.02 0.02 0.03 0.04 0.06 0.05 0.05 0.05 0.05 0.06 0.06 0.05 0.06 0.07 0.07 0.05 0.05 0.05 0.05 0.07 0.08 0.09 0.10 0.10 0.09 0.09 0.09 0.09 0.11 0.13 0.11 0.08 0.06 0.05 0.03 0.03 0.03 0.03 0.04
0.02 0.01 0.01 0.01 0.02 0.02 0.01 0.01 0.03 0.04 0.04 0.04 0.04 0.04 0.05 0.05 0.06 0.06 0.06 0.07 0.05 0.06 0.07 0.07 0.07 0.09 0.09 0.10 0.11 0.10 0.10 0.10 0.10 0.12 0.15 0.10 0.07 0.06 0.05 0.03 0.03 0.04 0.06
0.00 0.01 0.01 0.01 0.01 0.01 0.02 0.02 0.02 0.02 0.02 0.03 0.03 0.04 0.06 0.08 0.08 0.06 0.05 0.06 0.05 0.06 0.07 0.07 0.08 0.11 0.10 0.11 0.10 0.09 0.10 0.12 0.12 0.10 0.11 0.09 0.07 0.07 0.07 0.05 0.04 0.05 0.06
0.00 0.01 0.01 0.00 0.00 0.01 0.01 0.01 0.01 0.02 0.02 0.02 0.03 0.05 0.07 0.09 0.08 0.05 0.06 0.06 0.05 0.05 0.07 0.08 0.10 0.11 0.12 0.12 0.13 0.12 0.11 0.11 0.12 0.11 0.10 0.10 0.09 0.08 0.08 0.07 0.07 0.06 0.05
0.00 0.00 0.00 0.00 0.01 0.01 0.01 0.00 0.01 0.01 0.01 0.02 0.03 0.05 0.06 0.07 0.08 0.08 0.08 0.08 0.07 0.05 0.05 0.06 0.09 0.11 0.11 0.10 0.12 0.13 0.12 0.12 0.12 0.10 0.10 0.11 0.11 0.10 0.10 0.10 0.09 0.08 0.07
0.00 0.00 0.00 0.00 0.00 0.01 0.00 0.01 0.01 0.01 0.01 0.02 0.03 0.03 0.04 0.04 0.06 0.08 0.09 0.09 0.07 0.07 0.07 0.06 0.08 0.09 0.08 0.07 0.09 0.10 0.10 0.10 0.10 0.10 0.09 0.09 0.09 0.12 0.11 0.10 0.08 0.07 0.07
0.00 0.00 0.00 0.00 0.00 0.01 0.01 0.01 0.01 0.01 0.01 0.02 0.03 0.02 0.02 0.03 0.05 0.06 0.06 0.06 0.06 0.07 0.07 0.05 0.06 0.08 0.06 0.05 0.07 0.06 0.06 0.05 0.06 0.06 0.08 0.06 0.06 0.08 0.08 0.08 0.08 0.08 0.07
0.00 0.00 0.00 0.00 0.01 0.02 0.02 0.01 0.01 0.02 0.02 0.03 0.03 0.02 0.02 0.03 0.05 0.05 0.04 0.03 0.05 0.06 0.06 0.05 0.04 0.04 0.05 0.05 0.07 0.05 0.05 0.05 0.06 0.05 0.07 0.06 0.06 0.07 0.06 0.07 0.09 0.09 0.09
0.00 0.00 0.00 0.01 0.01 0.03 0.02 0.02 0.02 0.02 0.02 0.02 0.03 0.03 0.02 0.03 0.05 0.04 0.03 0.04 0.05 0.07 0.07 0.07 0.05 0.06 0.06 0.04 0.05 0.05 0.05 0.05 0.06 0.06 0.06 0.07 0.07 0.09 0.08 0.07 0.08 0.08 0.08
0.00 0.00 0.00 0.01 0.01 0.01 0.01 0.01 0.01 0.01 0.01 0.01 0.02 0.02 0.02 0.02 0.03 0.03 0.04 0.05 0.06 0.08 0.08 0.09 0.09 0.08 0.07 0.05 0.04 0.04 0.05 0.05 0.06 0.05 0.06 0.06 0.07 0.08 0.08 0.10 0.09 0.08 0.09
0.00 0.00 0.00 0.00 0.01 0.01 0.01 0.01 0.01 0.02 0.03 0.03 0.04 0.04 0.03 0.03 0.04 0.05 0.05 0.06 0.06 0.06 0.07 0.06 0.06 0.05 0.05 0.05 0.05 0.05 0.06 0.06 0.05 0.06 0.07 0.06 0.07 0.09 0.11 0.12 0.10 0.08 0.08
0.00 0.00 0.00 0.00 0.00 0.01 0.01 0.01 0.02 0.03 0.04 0.06 0.06 0.04 0.03 0.03 0.04 0.04 0.05 0.06 0.06 0.05 0.04 0.04 0.04 0.05 0.05 0.06 0.06 0.06 0.07 0.07 0.06 0.07 0.07 0.05 0.06 0.07 0.08 0.09 0.09 0.09 0.10
0.00 0.00 0.01 0.01 0.00 0.01 0.02 0.03 0.04 0.03 0.03 0.05 0.05 0.04 0.03 0.04 0.05 0.06 0.07 0.08 0.08 0.07 0.06 0.06 0.06 0.06 0.06 0.07 0.06 0.06 0.07 0.07 0.06 0.06 0.05 0.04 0.04 0.05 0.07 0.06 0.07 0.08 0.08
0.00 0.00 0.00 0.00 0.00 0.01 0.01 0.03 0.04 0.03 0.03 0.03 0.03 0.03 0.04 0.05 0.05 0.05 0.06 0.06 0.07 0.06 0.06 0.07 0.06 0.06 0.06 0.06 0.06 0.06 0.05 0.07 0.07 0.05 0.04 0.03 0.03 0.05 0.04 0.04 0.06 0.06 0.06
0.00 0.00 0.00 0.00 0.01 0.01 0.02 0.02 0.02 0.02 0.03 0.04 0.04 0.03 0.03 0.05 0.06 0.04 0.05 0.06 0.07 0.07 0.07 0.09 0.08 0.07 0.05 0.05 0.04 0.04 0.04 0.06 0.07 0.05 0.04 0.02 0.02 0.02 0.02 0.03 0.03 0.04 0.04
0.01 0.01 0.00 0.01 0.02 0.03 0.02 0.02 0.01 0.01 0.02 0.03 0.04 0.04 0.03 0.03 0.04 0.03 0.03 0.05 0.07 0.09 0.08 0.07 0.08 0.07 0.07 0.07 0.04 0.04 0.04 0.05 0.05 0.04 0.03 0.02 0.01 0.02 0.02 0.03 0.03 0.03 0.03
0.01 0.01 0.01 0.01 0.02 0.03 0.03 0.02 0.02 0.02 0.02 0.02 0.03 0.03 0.03 0.03 0.03 0.02 0.03 0.04 0.06 0.07 0.07 0.05 0.05 0.06 0.06 0.05 0.04 0.03 0.04 0.05 0.04 0.03 0.03 0.02 0.02 0.02 0.03 0.03 0.04 0.04 0.03
0.01 0.01 0.01 0.01 0.02 0.02 0.02 0.02 0.02 0.03 0.03 0.02 0.02 0.02 0.02 0.02 0.03 0.03 0.02 0.02 0.03 0.03 0.03 0.03 0.05 0.07 0.05 0.04 0.03 0.03 0.05 0.05 0.04 0.03 0.03 0.03 0.02 0.03 0.03 0.03 0.04 0.04 0.03
0.01 0.01 0.01 0.01 0.02 0.02 0.01 0.01 0.02 0.04 0.04 0.03 0.03 0.03 0.02 0.02 0.03 0.04 0.03 0.03 0.02 0.02 0.01 0.03 0.04 0.03 0.02 0.02 0.03 0.04 0.05 0.05 0.05 0.03 0.02 0.02 0.02 0.02 0.02 0.03 0.04 0.04 0.04
0.01 0.02 0.02 0.01 0.01 0.01 0.01 0.01 0.02 0.04 0.04 0.04 0.03 0.03 0.03 0.03 0.02 0.03 0.02 0.02 0.02 0.02 0.02 0.02 0.02 0.02 0.01 0.01 0.02 0.03 0.04 0.04 0.04 0.04 0.03 0.03 0.03 0.03 0.03 0.04 0.04 0.04 0.04
0.01 0.02 0.01 0.02 0.01 0.01 0.01 0.02 0.02 0.03 0.04 0.03 0.03 0.02 0.02 0.02 0.02 0.02 0.02 0.02 0.02 0.02 0.02 0.02 0.01 0.01 0.01 0.01 0.01 0.02 0.02 0.02 0.02 0.03 0.02 0.02 0.02 0.02 0.03 0.04 0.05 0.07 0.06
0.01 0.01 0.01 0.02 0.02 0.01 0.02 0.03 0.03 0.04 0.04 0.03 0.02 0.01 0.01 0.02 0.02 0.02 0.01 0.02 0.02 0.02 0.02 0.02 0.02 0.01 0.01 0.01 0.02 0.01 0.01 0.01 0.01 0.01 0.01 0.01 0.01 0.02 0.04 0.05 0.05 0.05 0.06
0.02 0.02 0.03 0.03 0.02 0.02 0.02 0.02 0.02 0.03 0.03 0.02 0.01 0.01 0.01 0.02 0.02 0.02 0.02 0.02 0.01 0.01 0.02 0.02 0.02 0.02 0.02 0.01 0.01 0.01 0.01 0.01 0.01 0.01 0.01 0.01 0.01 0.01 0.02 0.03 0.04 0.04 0.04
0.03 0.04 0.04 0.05 0.04 0.05 0.05 0.05 0.04 0.03 0.03 0.03 0.02 0.02 0.01 0.02 0.03 0.03 0.02 0.01 0.01 0.01 0.01 0.02 0.02 0.01 0.02 0.02 0.02 0.02 0.01 0.01 0.02 0.01 0.01 0.01 0.01 0.01 0.01 0.01 0.02 0.02 0.02
0.03 0.05 0.06 0.07 0.07 0.07 0.07 0.07 0.06 0.05 0.04 0.03 0.02 0.02 0.02 0.03 0.03 0.03 0.03 0.03 0.02 0.03 0.03 0.04 0.05 0.05 0.05 0.05 0.04 0.04 0.04 0.03 0.03 0.02 0.01 0.01 0.01 0.01 0.01 0.00 0.00 0.00 0.00
MSLP
1015.92 1015.61 1015.38 1015.24 1015.20 1015.26 1015.39 1015.61 1015.89 1016.21 1016.56 1016.94 1017.32 1017.69 1018.04 1018.34 1018.58 1018.72 1018.77 1018.71 1018.54 1018.28 1017.95 1017.58 1017.20 1016.83 1016.50 1016.22 1015.99 1015.81 1015.67 1015.55 1015.46 1015.39 1015.35 1015.33 1015.33 1015.36 1015.41 1015.48 1015.55 1015.63 1015.72
1016.58 1016.27 1016.02 1015.85 1015.76 1015.76 1015.84 1016.00 1016.25 1016.55 1016.91 1017.32 1017.74 1018.17 1018.57 1018.91 1019.16 1019.31 1019.34 1019.25 1019.04 1018.75 1018.38 1017.98 1017.57 1017.17 1016.79 1016.45 1016.14 1015.86 1015.61 1015.39 1015.21 1015.08 1015.00 1014.99 1015.05 1015.17 1015.35 1015.56 1015.78 1016.01 1016.21
1017.40 1017.12 1016.89 1016.73 1016.62 1016.58 1016.61 1016.72 1016.90 1017.16 1017.49 1017.88 1018.30 1018.73 1019.13 1019.47 1019.72 1019.86 1019.87 1019.76 1019.54 1019.23 1018.86 1018.45 1018.02 1017.60 1017.19 1016.79 1016.41 1016.04 1015.69 1015.37 1015.10 1014.90 1014.80 1014.81 1014.93 1015.16 1015.48 1015.85 1016.25 1016.65 1017.00
1018.27 1018.07 1017.91 1017.78 1017.69 1017.63 1017.62 1017.67 1017.79 1017.98 1018.25 1018.58 1018.95 1019.35 1019.72 1020.03 1020.26 1020.38 1020.38 1020.26 1020.04 1019.73 1019.37 1018.98 1018.56 1018.14 1017.72 1017.29 1016.85 1016.40 1015.97 1015.57 1015.23 1014.98 1014.86 1014.88 1015.06 1015.39 1015.84 1016.38 1016.95 1017.50 1018.00
1019.11 1019.02 1018.95 1018.90 1018.85 1018.80 1018.77 1018.77 1018.82 1018.94 1019.12 1019.37 1019.67 1020.00 1020.32 1020.59 1020.78 1020.88 1020.86 1020.74 1020.53 1020.25 1019.92 1019.56 1019.18 1018.78 1018.37 1017.93 1017.47 1016.99 1016.50 1016.05 1015.66 1015.37 1015.24 1015.28 1015.50 1015.89 1016.44 1017.09 1017.78 1018.46 1019.07
1019.87 1019.91 1019.96 1019.99 1020.00 1019.99 1019.95 1019.92 1019.91 1019.94 1020.04 1020.20 1020.42 1020.67 1020.92 1021.14 1021.29 1021.37 1021.34 1021.23 1021.04 1020.79 1020.50 1020.18 1019.85 1019.50 1019.12 1018.70 1018.25 1017.77 1017.28 1016.81 1016.40 1016.09 1015.94 1015.97 1016.21 1016.63 1017.21 1017.92 1018.67 1019.41 1020.09
1020.53 1020.71 1020.88 1021.01 1021.10 1021.12 1021.09 1021.02 1020.96 1020.92 1020.94 1021.02 1021.15 1021.33 1021.52 1021.69 1021.81 1021.86 1021.84 1021.73 1021.56 1021.35 1021.10 1020.83 1020.55 1020.25 1019.92 1019.56 1019.16 1018.71 1018.25 1017.79 1017.39 1017.08 1016.91 1016.92 1017.12 1017.51 1018.07 1018.75 1019.50 1020.24 1020.91
1021.11 1021.41 1021.70 1021.92 1022.07 1022.13 1022.11 1022.03 1021.93 1021.84 1021.79 1021.80 1021.87 1021.98 1022.12 1022.25 1022.34 1022.38 1022.36 1022.26 1022.11 1021.92 1021.71 1021.48 1021.25 1021.01 1020.75 1020.46 1020.12 1019.74 1019.33 1018.92 1018.54 1018.23 1018.05 1018.01 1018.15 1018.46 1018.94 1019.53 1020.19 1020.86 1021.48
1021.63 1022.04 1022.41 1022.71 1022.91 1023.00 1022.99 1022.91 1022.78 1022.66 1022.56 1022.53 1022.55 1022.62 1022.73 1022.83 1022.91 1022.94 1022.92 1022.83 1022.70 1022.53 1022.34 1022.15 1021.96 1021.77 1021.58 1021.35 1021.09 1020.79 1020.46 1020.10 1019.76 1019.46 1019.25 1019.16 1019.21 1019.41 1019.76 1020.21 1020.74 1021.29 1021.81
1022.09 1022.58 1023.01 1023.36 1023.60 1023.71 1023.71 1023.63 1023.50 1023.37 1023.26 1023.20 1023.20 1023.26 1023.35 1023.45 1023.52 1023.56 1023.54 1023.46 1023.33 1023.18 1023.01 1022.84 1022.68 1022.53 1022.39 1022.23 1022.05 1021.83 1021.57 1021.28 1020.97 1020.69 1020.46 1020.30 1020.26 1020.33 1020.52 1020.82 1021.19 1021.59 1021.99
1022.48 1023.01 1023.49 1023.86 1024.12 1024.25 1024.27 1024.21 1024.09 1023.97 1023.87 1023.82 1023.83 1023.89 1023.99 1024.09 1024.18 1024.22 1024.22 1024.15 1024.04 1023.89 1023.73 1023.57 1023.44 1023.31 1023.21 1023.10 1022.97 1022.82 1022.63 1022.39 1022.13 1021.86 1021.61 1021.41 1021.27 1021.23 1021.28 1021.42 1021.63 1021.88 1022.16
1022.77 1023.34 1023.83 1024.22 1024.49 1024.64 1024.69 1024.66 1024.58 1024.49 1024.43 1024.41 1024.45 1024.53 1024.65 1024.77 1024.88 1024.94 1024.95 1024.90 1024.80 1024.67 1024.52 1024.37 1024.24 1024.13 1024.05 1023.97 1023.89 1023.78 1023.64 1023.46 1023.23 1022.98 1022.72 1022.48 1022.28 1022.14 1022.08 1022.09 1022.17 1022.30 1022.45
1022.95 1023.53 1024.03 1024.43 1024.72 1024.90 1024.99 1025.01 1024.98 1024.95 1024.94 1024.98 1025.05 1025.17 1025.32 1025.47 1025.60 1025.69 1025.73 1025.70 1025.62 1025.50 1025.36 1025.22 1025.10 1025.00 1024.92 1024.85 1024.79 1024.72 1024.61 1024.46 1024.28 1024.05 1023.80 1023.55 1023.32 1023.12 1022.98 1022.90 1022.88 1022.91 1022.98
1023.01 1023.60 1024.11 1024.52 1024.84 1025.06 1025.21 1025.29 1025.34 1025.38 1025.43 1025.52 1025.65 1025.81 1025.99 1026.17 1026.33 1026.44 1026.51 1026.51 1026.46 1026.37 1026.24 1026.11 1025.99 1025.89 1025.81 1025.75 1025.69 1025.63 1025.54 1025.43 1025.27 1025.08 1024.85 1024.62 1024.38 1024.17 1024.00 1023.87 1023.79 1023.75 1023.75
1022.96 1023.57 1024.09 1024.54 1024.89 1025.17 1025.38 1025.54 1025.67 1025.79 1025.91 1026.06 1026.23 1026.42 1026.63 1026.84 1027.02 1027.16 1027.26 1027.29 1027.28 1027.21 1027.11 1027.00 1026.88 1026.78 1026.69 1026.62 1026.56 1026.50 1026.42 1026.33 1026.21 1026.05 1025.87 1025.67 1025.46 1025.27 1025.09 1024.95 1024.85 1024.77 1024.72
1022.85 1023.48 1024.04 1024.52 1024.93 1025.28 1025.57 1025.81 1026.01 1026.20 1026.39 1026.58 1026.79 1027.01 1027.23 1027.45 1027.65 1027.82 1027.94 1028.01 1028.02 1027.99 1027.92 1027.82 1027.72 1027.61 1027.51 1027.43 1027.36 1027.30 1027.23 1027.16 1027.07 1026.96 1026.82 1026.68 1026.52 1026.36 1026.21 1026.07 1025.95 1025.85 1025.76
1022.72 1023.39 1023.99 1024.52 1025.00 1025.41 1025.78 1026.09 1026.37 1026.62 1026.86 1027.09 1027.32 1027.55 1027.78 1028.00 1028.20 1028.38 1028.52 1028.62 1028.67 1028.67 1028.62 1028.55 1028.45 1028.34 1028.24 1028.15 1028.07 1028.00 1027.94 1027.89 1027.83 1027.76 1027.68 1027.59 1027.48 1027.37 1027.25 1027.12 1027.00 1026.88 1026.75
1022.62 1023.33 1023.98 1024.57 1025.11 1025.59 1026.02 1026.40 1026.73 1027.04 1027.31 1027.56 1027.79 1028.02 1028.24 1028.46 1028.66 1028.84 1028.99 1029.11 1029.18 1029.20 1029.19 1029.13 1029.05 1028.95 1028.84 1028.74 1028.66 1028.59 1028.55 1028.51 1028.48 1028.46 1028.42 1028.38 1028.31 1028.24 1028.14 1028.02 1027.88 1027.73 1027.56
1022.58 1023.33 1024.03 1024.67 1025.25 1025.79 1026.27 1026.70 1027.08 1027.41 1027.71 1027.97 1028.20 1028.42 1028.63 1028.83 1029.02 1029.20 1029.35 1029.48 1029.57 1029.61 1029.62 1029.59 1029.52 1029.43 1029.34 1029.24 1029.16 1029.10 1029.06 1029.04 1029.04 1029.04 1029.04 1029.03 1028.99 1028.93 1028.84 1028.71 1028.55 1028.36 1028.15
1022.60 1023.39 1024.11 1024.78 1025.40 1025.97 1026.49 1026.96 1027.37 1027.72 1028.03 1028.30 1028.53 1028.74 1028.94 1029.12 1029.30 1029.47 1029.62 1029.75 1029.85 1029.92 1029.95 1029.94 1029.89 1029.83 1029.75 1029.67 1029.60 1029.55 1029.52 1029.52 1029.53 1029.55 1029.56 1029.56 1029.53 1029.46 1029.35 1029.20 1029.00 1028.77 1028.51
1022.67 1023.46 1024.19 1024.88 1025.51 1026.10 1026.65 1027.13 1027.57 1027.94 1028.26 1028.53 1028.77 1028.97 1029.16 1029.33 1029.50 1029.66 1029.82 1029.95 1030.07 1030.15 1030.21 1030.23 1030.22 1030.18 1030.13 1030.08 1030.03 1030.00 1029.98 1029.98 1029.99 1030.01 1030.01 1029.99 1029.94 1029.85 1029.70 1029.51 1029.27 1029.00 1028.69
1022.74 1023.52 1024.24 1024.91 1025.55 1026.14 1026.69 1027.20 1027.65 1028.04 1028.38 1028.67 1028.91 1029.12 1029.31 1029.48 1029.64 1029.80 1029.95 1030.09 1030.23 1030.34 1030.42 1030.48 1030.51 1030.52 1030.51 1030.50 1030.48 1030.46 1030.46 1030.45 1030.45 1030.44 1030.41 1030.35 1030.26 1030.12 1029.93 1029.69 1029.41 1029.10 1028.76
1022.81 1023.53 1024.22 1024.87 1025.49 1026.08 1026.64 1027.16 1027.63 1028.05 1028.41 1028.72 1028.98 1029.20 1029.39 1029.56 1029.72 1029.87 1030.03 1030.18 1030.33 1030.47 1030.59 1030.70 1030.78 1030.85 1030.89 1030.92 1030.94 1030.95 1030.94 1030.93 1030.89 1030.84 1030.76 1030.64 1030.49 1030.29 1030.05 1029.77 1029.46 1029.12 1028.76
1022.83 1023.50 1024.13 1024.74 1025.34 1025.93 1026.49 1027.03 1027.53 1027.97 1028.36 1028.69 1028.97 1029.20 1029.40 1029.56 1029.72 1029.87 1030.03 1030.19 1030.36 1030.53 1030.70 1030.86 1031.01 1031.14 1031.24 1031.32 1031.38 1031.40 1031.39 1031.35 1031.28 1031.17 1031.02 1030.84 1030.62 1030.36 1030.07 1029.76 1029.43 1029.08 1028.73
1022.83 1023.42 1024.00 1024.57 1025.15 1025.73 1026.30 1026.86 1027.38 1027.86 1028.27 1028.62 1028.92 1029.15 1029.34 1029.50 1029.64 1029.79 1029.94 1030.11 1030.29 1030.49 1030.71 1030.93 1031.14 1031.33 1031.50 1031.63 1031.72 1031.76 1031.74 1031.67 1031.54 1031.37 1031.15 1030.89 1030.60 1030.29 1029.97 1029.64 1029.31 1028.99 1028.67
1022.80 1023.32 1023.84 1024.39 1024.95 1025.53 1026.12 1026.70 1027.24 1027.74 1028.17 1028.53 1028.82 1029.04 1029.22 1029.36 1029.47 1029.59 1029.73 1029.89 1030.08 1030.31 1030.57 1030.83 1031.11 1031.36 1031.59 1031.76 1031.88 1031.93 1031.90 1031.79 1031.61 1031.37 1031.08 1030.76 1030.42 1030.07 1029.73 1029.41 1029.10 1028.81 1028.54
Thickness
5808 5807 5803 5801 5797 5793 5789 5786 5783 5780 5777 5775 5773 5770 5768 5768 5767 5766 5764 5762 5760 5759 5757 5758 5756 5754 5753 5751 5751 5749 5748 5748 5749 5747 5746 5749 5752 5750 5749 5749 5748 5747 5745
5806 5805 5804 5801 5798 5794 5790 5788 5784 5782 5779 5777 5774 5773 5771 5769 5769 5767 5765 5763 5761 5759 5759 5756 5755 5754 5752 5750 5749 5748 5748 5749 5749 5746 5743 5742 5745 5746 5751 5749 5747 5746 5746
5808 5805 5803 5801 5799 5796 5793 5791 5787 5784 5781 5779 5776 5773 5769 5767 5768 5766 5766 5765 5762 5760 5758 5756 5755 5753 5753 5751 5748 5748 5747 5746 5748 5749 5745 5740 5738 5742 5747 5747 5747 5745 5744
5813 5809 5805 5801 5800 5799 5797 5793 5789 5786 5783 5780 5777 5773 5769 5766 5767 5768 5768 5766 5763 5761 5759 5757 5755 5753 5753 5750 5750 5751 5749 5746 5745 5747 5747 5746 5746 5739 5737 5743 5745 5744 5742
5815 5812 5809 5806 5804 5803 5799 5795 5790 5786 5784 5781 5778 5773 5772 5771 5771 5770 5767 5765 5765 5762 5760 5758 5756 5753 5752 5751 5750 5749 5749 5749 5746 5746 5746 5745 5744 5743 5738 5735 5739 5742 5743
5819 5816 5813 5810 5806 5805 5801 5798 5792 5787 5784 5781 5779 5774 5773 5771 5769 5766 5765 5764 5765 5763 5761 5759 5757 5754 5753 5752 5750 5749 5749 5748 5747 5747 5746 5744 5743 5741 5739 5736 5735 5736 5739
5820 5817 5813 5809 5806 5803 5801 5798 5793 5787 5785 5782 5779 5776 5773 5771 5767 5765 5764 5763 5764 5762 5760 5761 5758 5756 5753 5751 5750 5749 5748 5748 5745 5745 5745 5745 5744 5744 5742 5738 5736 5734 5736
5821 5819 5816 5813 5808 5805 5802 5798 5794 5789 5786 5782 5779 5778 5775 5772 5771 5768 5766 5764 5763 5763 5762 5759 5757 5755 5753 5752 5750 5749 5748 5746 5745 5745 5743 5743 5743 5743 5741 5738 5735 5730 5731
5820 5819 5818 5815 5811 5807 5804 5800 5795 5790 5787 5784 5780 5777 5774 5772 5770 5768 5765 5764 5762 5763 5761 5758 5756 5755 5753 5751 5748 5748 5745 5745 5743 5743 5741 5740 5741 5741 5740 5739 5736 5729 5724
5819 5819 5818 5816 5814 5810 5806 5802 5797 5791 5787 5784 5781 5779 5775 5772 5770 5768 5765 5763 5761 5760 5758 5756 5755 5752 5750 5748 5747 5745 5744 5742 5741 5740 5738 5737 5739 5738 5738 5736 5734 5731 5727
5817 5817 5816 5815 5813 5810 5806 5800 5795 5790 5786 5783 5780 5778 5775 5772 5769 5766 5764 5762 5759 5757 5755 5753 5752 5750 5747 5746 5744 5743 5741 5739 5738 5737 5736 5734 5734 5734 5734 5733 5731 5728 5726
5816 5816 5814 5812 5810 5807 5804 5799 5795 5789 5786 5782 5779 5776 5773 5770 5768 5765 5763 5760 5757 5755 5753 5751 5748 5746 5745 5743 5742 5740 5739 5737 5735 5734 5733 5731 5731 5729 5729 5728 5727 5725 5723
5809 5809 5808 5806 5805 5802 5800 5797 5793 5788 5785 5781 5777 5774 5770 5767 5765 5763 5760 5758 5754 5752 5750 5748 5745 5743 5741 5740 5739 5737 5736 5734 5733 5731 5729 5728 5727 5725 5725 5724 5723 5722 5721
5801 5801 5800 5799 5798 5797 5795 5792 5789 5785 5782 5778 5774 5770 5767 5764 5762 5760 5757 5754 5751 5748 5746 5744 5742 5740 5737 5736 5735 5733 5732 5730 5728 5727 5726 5724 5722 5721 5720 5720 5719 5718 5716
5795 5795 5793 5792 5792 5791 5789 5786 5782 5779 5777 5772 5768 5765 5763 5761 5759 5756 5753 5751 5747 5745 5742 5740 5738 5735 5733 5732 5730 5728 5727 5725 5723 5722 5721 5719 5717 5715 5715 5716 5714 5712 5711
5790 5790 5788 5787 5786 5785 5783 5781 5777 5774 5771 5767 5763 5761 5759 5756 5753 5751 5749 5746 5743 5740 5737 5735 5732 5730 5729 5725 5722 5722 5721 5720 5718 5716 5715 5714 5713 5710 5707 5706 5705 5704 5703
5785 5784 5783 5781 5780 5780 5778 5775 5773 5770 5766 5761 5758 5756 5754 5751 5748 5746 5744 5741 5739 5735 5731 5729 5727 5724 5720 5717 5715 5714 5715 5714 5712 5710 5709 5710 5709 5706 5704 5701 5698 5696 5694
5780 5779 5778 5777 5776 5775 5773 5771 5769 5765 5761 5756 5753 5751 5749 5746 5744 5742 5739 5736 5734 5731 5727 5724 5721 5718 5714 5711 5709 5708 5709 5708 5705 5703 5702 5701 5699 5698 5696 5695 5694 5691 5688
5776 5774 5774 5773 5770 5769 5767 5765 5762 5758 5754 5751 5747 5746 5744 5741 5739 5736 5734 5732 5729 5726 5723 5720 5716 5713 5708 5704 5703 5702 5704 5702 5699 5697 5694 5693 5691 5687 5686 5687 5685 5682 5679
5769 5768 5768 5767 5763 5761 5761 5757 5754 5750 5746 5744 5742 5741 5739 5736 5734 5731 5728 5726 5724 5721 5718 5714 5711 5707 5703 5698 5697 5696 5700 5697 5694 5690 5687 5682 5680 5677 5676 5678 5676 5673 5670
5761 5761 5759 5758 5755 5755 5753 5749 5745 5741 5739 5738 5736 5735 5733 5731 5728 5725 5723 5721 5719 5716 5712 5708 5705 5702 5698 5693 5690 5689 5692 5691 5687 5685 5680 5674 5669 5668 5667 5667 5666 5662 5661
5752 5752 5750 5748 5747 5747 5745 5740 5736 5734 5733 5732 5729 5727 5726 5725 5722 5719 5716 5714 5712 5709 5705 5701 5698 5696 5692 5687 5683 5681 5680 5680 5679 5675 5672 5666 5660 5659 5657 5657 5654 5652 5652
5743 5744 5742 5739 5737 5736 5735 5732 5729 5728 5726 5724 5722 5720 5718 5716 5715 5712 5709 5707 5705 5704 5701 5698 5693 5690 5686 5680 5675 5673 5671 5670 5669 5666 5659 5656 5653 5651 5650 5646 5644 5645 5644
5733 5734 5732 5729 5727 5726 5726 5723 5721 5721 5719 5716 5714 5712 5710 5708 5706 5704 5702 5700 5698 5697 5694 5691 5687 5684 5679 5675 5671 5668 5665 5661 5659 5656 5651 5648 5645 5644 5641 5639 5638 5637 5634
5724 5724 5722 5719 5717 5716 5714 5712 5712 5712 5710 5707 5705 5703 5701 5699 5694 5691 5689 5688 5684 5683 5683 5682 5679 5675 5670 5662 5659 5659 5658 5656 5652 5649 5647 5644 5641 5638 5635 5632 5629 5627 5624
5714 5713 5712 5710 5707 5705 5704 5703 5702 5702 5701 5699 5696 5695 5692 5689 5686 5682 5677 5670 5670 5668 5666 5665 5664 5660 5655 5651 5648 5646 5644 5642 5640 5641 5639 5635 5632 5629 5626 5623 5620 5616 5613